This is the latest recevied weather packets stored in our database for station/object WW3TRG. If no packets are shown the sender has not sent any weather packets the latest 10 day(s).
| Time | Temp. | Humidity | Pressure | Rain* | Wind** | Luminosity | Snow |
|---|---|---|---|---|---|---|---|
| 1777844785 | 16.67° C | 33% | 1010.3 hPa | 0 mm | - | 86 W/m² | - |
| 1777844481 | 16.67° C | 34% | 1010.7 hPa | 0 mm | - | 113 W/m² | - |
| 1777844180 | 16.11° C | 33% | 1010.3 hPa | 0 mm | - | 248 W/m² | - |
| 1777843876 | 15.56° C | 35% | 1010.2 hPa | 0 mm | - | 116 W/m² | - |
| 1777843574 | 16.11° C | 37% | 1010.5 hPa | 0 mm | - | 109 W/m² | - |
| 1777843271 | 16.11° C | 35% | 1010.2 hPa | 0 mm | - | 224 W/m² | - |
| 1777842969 | 16.11° C | 33% | 1010.2 hPa | 0 mm | - | 339 W/m² | - |
| 1777842664 | 16.11° C | 32% | 1010.3 hPa | 0 mm | - | 119 W/m² | - |
| 1777842361 | 16.67° C | 32% | 1010.2 hPa | 0 mm | - | 269 W/m² | - |
| 1777842056 | 16.67° C | 31% | 1010.3 hPa | 0 mm | - | 313 W/m² | - |
| 1777841753 | 16.67° C | 34% | 1010.5 hPa | 0 mm | - | 114 W/m² | - |
| 1777841449 | 16.11° C | 34% | 1010.4 hPa | 0 mm | - | 421 W/m² | - |
| 1777841147 | 15.56° C | 35% | 1010.4 hPa | 0 mm | - | 440 W/m² | - |
| 1777840844 | 16.11° C | 33% | 1010.3 hPa | 0 mm | - | 84 W/m² | - |
| 1777840541 | 16.11° C | 33% | 1010.5 hPa | 0 mm | - | 73 W/m² | - |
| 1777840238 | 16.67° C | 36% | 1010.3 hPa | 0 mm | - | 334 W/m² | - |
| 1777839936 | 15.56° C | 33% | 1010.5 hPa | 0 mm | - | 426 W/m² | - |
| 1777839634 | 15.56° C | 33% | 1010.7 hPa | 0 mm | - | 84 W/m² | - |
| 1777839332 | 16.11° C | 32% | 1010.5 hPa | 0 mm | - | 458 W/m² | - |
| 1777839028 | 16.11° C | 34% | 1010.7 hPa | 0 mm | - | 424 W/m² | - |
| 1777838724 | 16.11° C | 32% | 1010.8 hPa | 0 mm | - | 402 W/m² | - |
| 1777838421 | 15.56° C | 34% | 1010.9 hPa | 0 mm | - | 399 W/m² | - |
| 1777838119 | 15.56° C | 33% | 1010.9 hPa | 0 mm | - | 492 W/m² | - |
| 1777837815 | 15.56° C | 37% | 1010.8 hPa | 0 mm | - | 251 W/m² | - |
| 1777837513 | 15.56° C | 34% | 1011 hPa | 0 mm | - | 481 W/m² | - |
* Rain latest hour (hover to see other rain measurements)
** Current wind speed in m/s (hover to see current wind gust speed)